Location: *
(35.2348°S, 91.3916°E)
Time: 23:33:06
(UTC+00:00)

Cosmos 1842 Rocket - Pass Details

Date: 23 October 2019
Orbit: 606 x 633 km, 82.5° (Epoch: 17 November)

Event Time Altitude Azimuth Distance (km) Brightness Sun altitude
Rises 13:10:02 0° 190° (S) 2,901 7.5 -11.3°
Reaches altitude 10° 13:12:17 10° 192° (SSW) 1,990 6.7 -11.7°
Maximum altitude 13:16:39 67° 274° (W) 670 3.9 -12.5°
Drops below altitude 10° 13:20:59 10° 357° (N) 1,973 5.9 -13.4°
Sets 13:23:13 0° 359° (N) 2,874 6.7 -13.8°
